sat.trackr.live / text

‹ back to catalog

GLOBALSTAR M087

NORAD 52888 · 2022-064A

PAYLOAD ACTIVE UNKNOWN

§ Identity

Operator
Country
US
Launch date
2022-06-19
Launch site
AFETR
Launch vehicle
Mass (kg)
RCS (m²)

Purposes: comms

External: N2YO · Heavens-Above · Gunter

§ Orbital elements

Epoch: 2026-09-20T02:30:09.734112Z

Period
114.08 min
Inclination
51.9982°
Eccentricity
0.0000764
Mean motion
12.62263142 rev/d
Perigee alt
1,413.0 km
Apogee alt
1,414.2 km
Semi-major
7,791.8 km
B*
2.2131e-5
RAAN
133.4845°
Arg perigee
96.1318°
Mean anomaly
263.9635°
Rev number
20,312

§ Raw data

GLOBALSTAR M0871 52888U 22064A   26263.10427933 -.00000100  00000+0  22131-4 0  99972 52888  51.9982 133.4845 0000764  96.1318 263.9635 12.62263142203121

JSON: /api/v1/satellites/52888 · /tle

For live sub-satellite position, see the globe view (requires WebGL).

§ Visibility from observer

Set your observer location to see the next 7 days of passes ≥ 10°. The values pass through the URL so the page stays shareable.

No JS? Fill the form by hand. The geolocation button needs JavaScript.